Starlink 1931

operational
NORAD ID: 46790 Int'l Des: 2020-074 Owner: SPXS Country: US Constellation: starlink
LEOCIRCULARSTARLINK_TYPE

Starlink 1931について

説明を読み込み中...

リアルタイム位置

3D地球を読み込み中...

次回通過

高度履歴

Altitude vs Time

uPlot chart will show altitude changes over time

軌道要素

1 46790U 20074BD 25273.41495774 .00016929 00000-0 11516-2 0 9992
2 46790 53.0550 321.1211 0001434 85.2739 274.8414 15.06435241272511
Epoch: Sep 30, 2025 • Age: 13 hours

現在のステータス

高度 550.9 km
速度 7.59 km/s
衛星直下点 45.14°N, 91.7°E
打ち上げ日 Oct 24, 2020
運用期間 4.9 years
タイプ internet

技術仕様

分類 Payload
質量 260.00 kg
乾燥質量 248.00 kg
総質量 260.00 kg
長さ 0.20 m
直径 2.80 m
スパン 9.00 m
形状 Box + pan
製造者 SPXS
バスタイプ Starlink
フェーズステータス In Orbit
所有者/国 SPXS/US

大規模コンステレーション

Loading constellations...